Time,TemperatureF,DewpointF,PressureIn,WindDirection,WindDirectionDegrees,WindSpeedMPH,WindSpeedGustMPH,Humidity,HourlyPrecipIn,Conditions,Clouds,dailyrainin,SoftwareType,DateUTC
2013-01-29 00:01:00,39.9,39.4,29.93,South,180,0.0,2.0,98,0.05,,,0.66,meteohub,2013-01-29 08:01:00,
2013-01-29 00:06:00,39.9,39.4,29.93,SE,135,1.0,2.0,98,0.05,,,0.66,meteohub,2013-01-29 08:06:00,
2013-01-29 00:11:00,39.9,39.4,29.93,ENE,68,0.0,2.0,98,0.05,,,0.66,meteohub,2013-01-29 08:11:00,
2013-01-29 00:16:00,39.9,39.4,29.93,SW,225,0.0,2.0,98,0.05,,,0.00,meteohub,2013-01-29 08:16:00,
2013-01-29 00:21:00,39.9,39.4,29.93,ENE,68,1.0,2.0,98,0.05,,,0.00,meteohub,2013-01-29 08:21:00,
2013-01-29 00:26:00,39.9,39.4,29.93,ESE,112,0.0,2.0,98,0.05,,,0.00,meteohub,2013-01-29 08:26:00,
2013-01-29 00:31:00,39.9,39.4,29.93,ESE,112,0.0,2.0,98,0.05,,,0.00,meteohub,2013-01-29 08:31:00,
2013-01-29 00:36:00,39.9,39.4,29.93,ESE,112,0.0,2.0,98,0.05,,,0.00,meteohub,2013-01-29 08:36:00,
2013-01-29 00:41:00,39.9,39.4,29.93,ESE,112,0.0,1.0,98,0.05,,,0.00,meteohub,2013-01-29 08:41:00,
2013-01-29 00:46:00,39.9,39.4,29.93,SE,135,0.0,1.0,98,0.05,,,0.00,meteohub,2013-01-29 08:46:00,
2013-01-29 00:51:00,39.7,39.2,29.93,East,90,0.0,1.0,98,0.05,,,0.00,meteohub,2013-01-29 08:51:00,
2013-01-29 00:56:00,39.7,39.2,29.93,SE,135,0.0,1.0,98,0.05,,,0.00,meteohub,2013-01-29 08:56:00,
2013-01-29 01:01:00,39.7,39.2,29.93,East,90,0.0,1.0,98,0.00,,,0.00,meteohub,2013-01-29 09:01:00,
2013-01-29 01:06:00,39.7,39.2,29.93,East,90,0.0,1.0,98,0.00,,,0.00,meteohub,2013-01-29 09:06:00,
2013-01-29 01:11:00,39.7,39.2,29.93,East,90,0.0,1.0,98,0.00,,,0.00,meteohub,2013-01-29 09:11:00,
2013-01-29 01:16:00,39.7,39.2,29.93,ESE,112,0.0,1.0,98,0.00,,,0.00,meteohub,2013-01-29 09:16:00,
2013-01-29 01:21:00,39.7,39.2,29.93,ESE,112,0.0,1.0,98,0.00,,,0.00,meteohub,2013-01-29 09:21:00,
2013-01-29 01:26:00,39.7,39.2,29.93,ESE,112,0.0,1.0,98,0.00,,,0.00,meteohub,2013-01-29 09:26:00,
2013-01-29 01:31:00,39.6,39.0,29.93,ESE,112,0.0,0.0,98,0.00,,,0.00,meteohub,2013-01-29 09:31:00,
2013-01-29 01:36:00,39.6,39.0,29.93,ENE,68,0.0,0.0,98,0.00,,,0.00,meteohub,2013-01-29 09:36:00,
2013-01-29 01:41:00,39.6,39.0,29.93,ENE,68,0.0,0.0,98,0.00,,,0.00,meteohub,2013-01-29 09:41:00,
2013-01-29 01:46:00,39.4,38.8,29.93,ENE,68,0.0,0.0,98,0.00,,,0.00,meteohub,2013-01-29 09:46:00,
2013-01-29 01:51:00,39.4,38.8,29.93,East,90,0.0,0.0,98,0.00,,,0.00,meteohub,2013-01-29 09:51:00,
2013-01-29 01:56:00,39.4,38.8,29.93,East,90,0.0,0.0,98,0.00,,,0.00,meteohub,2013-01-29 09:56:00,
2013-01-29 02:01:00,39.2,38.7,29.93,East,90,0.0,0.0,98,0.00,,,0.00,meteohub,2013-01-29 10:01:00,
2013-01-29 02:06:00,39.2,38.7,29.93,East,90,0.0,0.0,98,0.00,,,0.00,meteohub,2013-01-29 10:06:00,
2013-01-29 02:11:00,39.2,38.7,29.93,East,90,0.0,0.0,98,0.00,,,0.00,meteohub,2013-01-29 10:11:00,
2013-01-29 02:16:00,39.2,38.7,29.96,East,90,0.0,0.0,98,0.00,,,0.00,meteohub,2013-01-29 10:16:00,
2013-01-29 02:21:00,39.2,38.7,29.96,East,90,0.0,0.0,98,0.00,,,0.00,meteohub,2013-01-29 10:21:00,
2013-01-29 02:26:00,39.2,38.7,29.96,East,90,0.0,0.0,98,0.00,,,0.00,meteohub,2013-01-29 10:26:00,
2013-01-29 02:31:00,39.0,38.5,29.96,East,90,0.0,0.0,98,0.00,,,0.00,meteohub,2013-01-29 10:31:00,
2013-01-29 02:36:00,39.0,38.5,29.96,ESE,112,0.0,0.0,98,0.00,,,0.00,meteohub,2013-01-29 10:36:00,
2013-01-29 02:41:00,39.0,38.5,29.96,NE,45,0.0,0.0,98,0.00,,,0.00,meteohub,2013-01-29 10:41:00,
2013-01-29 02:46:00,39.0,38.5,29.96,East,90,0.0,0.0,98,0.00,,,0.00,meteohub,2013-01-29 10:46:00,
2013-01-29 02:51:00,38.8,38.3,29.96,East,90,0.0,0.0,98,0.00,,,0.00,meteohub,2013-01-29 10:51:00,
2013-01-29 02:57:00,38.8,38.3,29.96,East,90,0.0,0.0,98,0.00,,,0.00,meteohub,2013-01-29 10:57:00,
2013-01-29 03:02:00,38.8,38.3,29.96,East,90,0.0,0.0,98,0.00,,,0.00,meteohub,2013-01-29 11:02:00,
2013-01-29 03:07:00,38.8,38.3,29.96,East,90,0.0,0.0,98,0.00,,,0.00,meteohub,2013-01-29 11:07:00,
2013-01-29 03:12:00,38.8,38.3,29.96,East,90,0.0,0.0,98,0.00,,,0.00,meteohub,2013-01-29 11:12:00,
2013-01-29 03:17:00,38.8,38.3,29.96,East,90,0.0,0.0,98,0.00,,,0.00,meteohub,2013-01-29 11:17:00,
2013-01-29 03:22:00,38.8,38.3,29.96,East,90,0.0,0.0,98,0.00,,,0.00,meteohub,2013-01-29 11:22:00,
2013-01-29 03:27:00,38.8,38.3,29.96,East,90,0.0,0.0,98,0.00,,,0.00,meteohub,2013-01-29 11:27:00,
2013-01-29 03:32:00,38.8,38.3,29.99,NW,315,0.0,1.0,98,0.00,,,0.00,meteohub,2013-01-29 11:32:00,
2013-01-29 03:37:00,38.8,38.3,29.99,East,90,0.0,1.0,98,0.00,,,0.00,meteohub,2013-01-29 11:37:00,
2013-01-29 03:42:00,38.8,38.3,29.99,SE,135,0.0,1.0,98,0.00,,,0.00,meteohub,2013-01-29 11:42:00,
2013-01-29 03:47:00,38.8,38.3,29.99,SE,135,0.0,1.0,98,0.00,,,0.00,meteohub,2013-01-29 11:47:00,
2013-01-29 03:52:00,38.8,38.3,29.99,SE,135,0.0,0.0,98,0.00,,,0.00,meteohub,2013-01-29 11:52:00,
2013-01-29 03:57:00,38.8,38.3,29.99,SSE,158,0.0,0.0,98,0.00,,,0.00,meteohub,2013-01-29 11:57:00,
2013-01-29 04:02:00,38.7,38.1,29.99,SSE,158,0.0,0.0,98,0.00,,,0.00,meteohub,2013-01-29 12:02:00,
2013-01-29 04:07:00,38.7,38.1,29.99,SE,135,0.0,0.0,98,0.00,,,0.00,meteohub,2013-01-29 12:07:00,
2013-01-29 04:12:00,38.7,38.1,29.99,NW,315,3.0,0.0,98,0.00,,,0.04,meteohub,2013-01-29 12:12:00,
2013-01-29 04:17:00,38.8,38.3,29.99,NNE,22,0.0,0.0,98,0.04,,,0.04,meteohub,2013-01-29 12:17:00,
2013-01-29 04:22:00,38.8,38.3,29.99,SSE,158,0.0,3.0,98,0.04,,,0.04,meteohub,2013-01-29 12:22:00,
2013-01-29 04:27:00,38.8,38.3,29.99,South,180,0.0,3.0,98,0.04,,,0.04,meteohub,2013-01-29 12:27:00,
2013-01-29 04:32:00,38.8,38.3,29.96,South,180,0.0,1.0,98,0.04,,,0.04,meteohub,2013-01-29 12:32:00,
2013-01-29 04:37:00,38.8,38.3,29.96,WNW,292,0.0,1.0,98,0.04,,,0.04,meteohub,2013-01-29 12:37:00,
2013-01-29 04:42:00,38.8,38.3,29.96,SSW,202,0.0,1.0,98,0.04,,,0.04,meteohub,2013-01-29 12:42:00,
2013-01-29 04:47:00,38.8,38.3,29.99,WNW,292,1.0,1.0,98,0.04,,,0.04,meteohub,2013-01-29 12:47:00,
2013-01-29 04:52:00,38.8,38.3,29.99,WNW,292,0.0,1.0,98,0.04,,,0.04,meteohub,2013-01-29 12:52:00,
2013-01-29 04:57:00,38.8,38.3,29.99,SSE,158,1.0,1.0,98,0.04,,,0.04,meteohub,2013-01-29 12:57:00,
2013-01-29 05:02:00,38.8,38.3,29.99,NW,315,0.0,1.0,98,0.04,,,0.04,meteohub,2013-01-29 13:02:00,
2013-01-29 05:07:00,38.8,38.3,29.99,NW,315,0.0,1.0,98,0.04,,,0.04,meteohub,2013-01-29 13:07:00,
2013-01-29 05:12:00,38.8,38.3,29.99,NW,315,0.0,1.0,98,0.04,,,0.04,meteohub,2013-01-29 13:12:00,
2013-01-29 05:17:00,38.8,38.3,29.99,NW,315,0.0,0.0,98,0.00,,,0.04,meteohub,2013-01-29 13:17:00,
2013-01-29 05:22:00,38.8,38.3,29.99,NNW,338,0.0,0.0,98,0.00,,,0.04,meteohub,2013-01-29 13:22:00,
2013-01-29 05:27:00,38.8,38.3,29.99,NNW,338,0.0,0.0,98,0.00,,,0.04,meteohub,2013-01-29 13:27:00,
2013-01-29 05:32:00,38.8,38.3,29.99,NNW,338,0.0,0.0,98,0.00,,,0.08,meteohub,2013-01-29 13:32:00,
2013-01-29 05:37:00,38.8,38.3,29.99,ESE,112,1.0,0.0,98,0.04,,,0.08,meteohub,2013-01-29 13:37:00,
2013-01-29 05:42:00,38.7,38.1,29.99,East,90,0.0,0.0,98,0.04,,,0.08,meteohub,2013-01-29 13:42:00,
2013-01-29 05:47:00,38.7,38.1,29.99,NW,315,1.0,0.0,98,0.04,,,0.08,meteohub,2013-01-29 13:47:00,
2013-01-29 05:52:00,38.8,38.3,29.99,NNE,22,0.0,0.0,98,0.04,,,0.08,meteohub,2013-01-29 13:52:00,
2013-01-29 05:57:00,38.8,38.3,29.99,NE,45,0.0,0.0,98,0.04,,,0.08,meteohub,2013-01-29 13:57:00,
2013-01-29 06:02:00,38.8,38.3,30.01,SE,135,0.0,2.0,98,0.04,,,0.08,meteohub,2013-01-29 14:02:00,
2013-01-29 06:07:00,38.7,38.1,30.01,SE,135,0.0,2.0,98,0.04,,,0.08,meteohub,2013-01-29 14:07:00,
2013-01-29 06:12:00,38.7,38.1,30.01,SE,135,0.0,2.0,98,0.04,,,0.08,meteohub,2013-01-29 14:12:00,
2013-01-29 06:17:00,38.7,38.1,30.01,SE,135,0.0,2.0,98,0.04,,,0.08,meteohub,2013-01-29 14:17:00,
2013-01-29 06:22:00,38.7,38.1,30.01,SE,135,0.0,2.0,98,0.04,,,0.08,meteohub,2013-01-29 14:22:00,
2013-01-29 06:27:00,38.7,38.1,30.01,SE,135,0.0,2.0,98,0.00,,,0.08,meteohub,2013-01-29 14:27:00,
2013-01-29 06:32:00,38.7,38.1,30.01,SE,135,0.0,0.0,98,0.00,,,0.08,meteohub,2013-01-29 14:32:00,
2013-01-29 06:37:00,38.7,38.1,30.01,SE,135,0.0,0.0,98,0.00,,,0.08,meteohub,2013-01-29 14:37:00,
2013-01-29 06:42:00,38.7,38.1,30.01,SE,135,0.0,0.0,98,0.00,,,0.08,meteohub,2013-01-29 14:42:00,
2013-01-29 06:47:00,38.7,38.1,30.04,SE,135,0.0,0.0,98,0.00,,,0.08,meteohub,2013-01-29 14:47:00,
2013-01-29 06:52:00,38.7,38.1,30.04,SE,135,0.0,0.0,98,0.00,,,0.08,meteohub,2013-01-29 14:52:00,
2013-01-29 06:57:00,38.7,38.1,30.04,SE,135,0.0,0.0,98,0.00,,,0.08,meteohub,2013-01-29 14:57:00,
2013-01-29 07:02:00,38.7,38.1,30.04,SE,135,0.0,0.0,98,0.00,,,0.08,meteohub,2013-01-29 15:02:00,
2013-01-29 07:07:00,38.7,38.1,30.04,SE,135,0.0,0.0,98,0.00,,,0.08,meteohub,2013-01-29 15:07:00,
2013-01-29 07:12:00,38.7,38.1,30.04,SE,135,0.0,0.0,98,0.00,,,0.08,meteohub,2013-01-29 15:12:00,
2013-01-29 07:17:00,38.7,38.1,30.04,SE,135,0.0,0.0,98,0.00,,,0.08,meteohub,2013-01-29 15:17:00,
2013-01-29 07:22:00,38.7,38.1,30.04,SE,135,0.0,0.0,98,0.00,,,0.12,meteohub,2013-01-29 15:22:00,
2013-01-29 07:27:00,38.7,38.1,30.04,SE,135,0.0,0.0,98,0.04,,,0.12,meteohub,2013-01-29 15:27:00,
2013-01-29 07:32:00,38.7,38.1,30.04,SE,135,0.0,0.0,98,0.04,,,0.12,meteohub,2013-01-29 15:32:00,
2013-01-29 07:37:00,38.7,38.1,30.04,SE,135,0.0,0.0,98,0.04,,,0.12,meteohub,2013-01-29 15:37:00,
2013-01-29 07:42:00,38.7,38.1,30.04,SE,135,0.0,0.0,98,0.04,,,0.12,meteohub,2013-01-29 15:42:00,
2013-01-29 07:47:00,38.7,38.1,30.04,SE,135,0.0,0.0,98,0.04,,,0.12,meteohub,2013-01-29 15:47:00,
2013-01-29 07:52:00,38.7,38.1,30.04,SE,135,0.0,0.0,98,0.04,,,0.12,meteohub,2013-01-29 15:52:00,
2013-01-29 07:57:00,38.8,38.3,30.04,SE,135,0.0,0.0,98,0.04,,,0.12,meteohub,2013-01-29 15:57:00,
2013-01-29 08:02:00,38.8,38.3,30.04,SSE,158,0.0,0.0,98,0.04,,,0.12,meteohub,2013-01-29 16:02:00,
2013-01-29 08:07:00,39.0,38.5,30.04,SSE,158,0.0,0.0,98,0.04,,,0.12,meteohub,2013-01-29 16:07:00,
2013-01-29 08:12:00,39.0,38.5,30.04,SSE,158,0.0,0.0,98,0.04,,,0.12,meteohub,2013-01-29 16:12:00,
2013-01-29 08:18:00,39.0,38.5,30.04,SSE,158,0.0,0.0,98,0.00,,,0.12,meteohub,2013-01-29 16:18:00,
2013-01-29 08:23:00,39.0,38.5,30.04,SSE,158,0.0,0.0,98,0.00,,,0.12,meteohub,2013-01-29 16:23:00,
2013-01-29 08:28:00,39.2,38.7,30.04,SSE,158,0.0,0.0,98,0.00,,,0.12,meteohub,2013-01-29 16:28:00,
2013-01-29 08:33:00,39.2,38.7,30.04,SSE,158,0.0,0.0,98,0.00,,,0.12,meteohub,2013-01-29 16:33:00,
2013-01-29 08:38:00,39.4,38.8,30.04,SSE,158,0.0,0.0,98,0.00,,,0.12,meteohub,2013-01-29 16:38:00,
2013-01-29 08:43:00,39.4,38.8,30.04,SSE,158,0.0,0.0,98,0.00,,,0.12,meteohub,2013-01-29 16:43:00,
2013-01-29 08:48:00,39.6,39.0,30.07,SSE,158,0.0,0.0,98,0.00,,,0.12,meteohub,2013-01-29 16:48:00,
2013-01-29 08:53:00,39.6,39.0,30.07,SSE,158,0.0,0.0,98,0.00,,,0.12,meteohub,2013-01-29 16:53:00,
2013-01-29 08:58:00,39.6,39.0,30.07,SE,135,0.0,0.0,98,0.00,,,0.12,meteohub,2013-01-29 16:58:00,
2013-01-29 09:03:00,39.7,39.2,30.07,SE,135,0.0,0.0,98,0.00,,,0.12,meteohub,2013-01-29 17:03:00,
2013-01-29 09:08:00,39.7,39.2,30.07,SE,135,0.0,0.0,98,0.00,,,0.12,meteohub,2013-01-29 17:08:00,
2013-01-29 09:13:00,39.9,39.4,30.07,SE,135,0.0,0.0,98,0.00,,,0.12,meteohub,2013-01-29 17:13:00,
2013-01-29 09:18:00,39.9,39.4,30.07,SE,135,0.0,0.0,98,0.00,,,0.12,meteohub,2013-01-29 17:18:00,
2013-01-29 09:23:00,40.1,39.6,30.07,SE,135,0.0,0.0,98,0.00,,,0.12,meteohub,2013-01-29 17:23:00,
2013-01-29 09:28:00,40.3,39.7,30.07,SE,135,0.0,0.0,98,0.00,,,0.12,meteohub,2013-01-29 17:28:00,
2013-01-29 09:33:00,40.3,39.7,30.07,SE,135,0.0,0.0,98,0.00,,,0.12,meteohub,2013-01-29 17:33:00,
2013-01-29 09:38:00,40.5,39.9,30.07,SE,135,0.0,0.0,98,0.00,,,0.12,meteohub,2013-01-29 17:38:00,
2013-01-29 09:43:00,40.5,39.9,30.07,SE,135,0.0,0.0,98,0.04,,,0.12,meteohub,2013-01-29 17:43:00,
2013-01-29 09:48:00,40.6,40.1,30.10,SE,135,0.0,0.0,98,0.04,,,0.12,meteohub,2013-01-29 17:48:00,
2013-01-29 09:53:00,40.8,40.3,30.10,SE,135,0.0,0.0,98,0.04,,,0.12,meteohub,2013-01-29 17:53:00,
2013-01-29 09:58:00,41.0,40.5,30.10,SE,135,0.0,0.0,98,0.04,,,0.16,meteohub,2013-01-29 17:58:00,
2013-01-29 10:03:00,41.0,40.5,30.10,SE,135,0.0,0.0,98,0.04,,,0.16,meteohub,2013-01-29 18:03:00,
2013-01-29 10:08:00,41.2,40.6,30.10,SE,135,0.0,0.0,98,0.04,,,0.16,meteohub,2013-01-29 18:08:00,
2013-01-29 10:13:00,41.2,40.6,30.10,SE,135,0.0,0.0,98,0.04,,,0.16,meteohub,2013-01-29 18:13:00,
2013-01-29 10:18:00,41.4,40.8,30.07,SE,135,0.0,0.0,98,0.04,,,0.16,meteohub,2013-01-29 18:18:00,
2013-01-29 10:23:00,41.5,41.0,30.07,ENE,68,0.0,0.0,98,0.04,,,0.16,meteohub,2013-01-29 18:23:00,
2013-01-29 10:28:00,41.5,41.0,30.07,ENE,68,0.0,0.0,98,0.04,,,0.16,meteohub,2013-01-29 18:28:00,
2013-01-29 10:33:00,41.7,41.2,30.10,ENE,68,0.0,0.0,98,0.04,,,0.16,meteohub,2013-01-29 18:33:00,
2013-01-29 10:38:00,41.7,41.2,30.10,ENE,68,0.0,0.0,98,0.04,,,0.16,meteohub,2013-01-29 18:38:00,
2013-01-29 10:43:00,41.7,41.2,30.10,ENE,68,0.0,0.0,98,0.04,,,0.16,meteohub,2013-01-29 18:43:00,
2013-01-29 10:48:00,41.9,41.4,30.10,ENE,68,0.0,0.0,98,0.04,,,0.16,meteohub,2013-01-29 18:48:00,
2013-01-29 10:53:00,41.9,41.4,30.10,ENE,68,0.0,0.0,98,0.04,,,0.16,meteohub,2013-01-29 18:53:00,
2013-01-29 10:58:00,41.9,41.4,30.10,ENE,68,0.0,0.0,98,0.00,,,0.16,meteohub,2013-01-29 18:58:00,
2013-01-29 11:03:00,41.9,41.4,30.10,ENE,68,0.0,0.0,98,0.00,,,0.16,meteohub,2013-01-29 19:03:00,
2013-01-29 11:08:00,42.1,41.5,30.10,ENE,68,0.0,0.0,98,0.00,,,0.16,meteohub,2013-01-29 19:08:00,
2013-01-29 11:13:00,42.3,41.7,30.10,ENE,68,0.0,0.0,98,0.00,,,0.16,meteohub,2013-01-29 19:13:00,
2013-01-29 11:18:00,42.4,41.9,30.10,ENE,68,0.0,0.0,98,0.00,,,0.16,meteohub,2013-01-29 19:18:00,
2013-01-29 11:23:00,42.4,41.9,30.10,ENE,68,0.0,0.0,98,0.00,,,0.16,meteohub,2013-01-29 19:23:00,
2013-01-29 11:28:00,42.6,42.1,30.10,ENE,68,0.0,0.0,98,0.00,,,0.16,meteohub,2013-01-29 19:28:00,
2013-01-29 11:33:00,42.8,42.3,30.13,ENE,68,0.0,0.0,98,0.00,,,0.16,meteohub,2013-01-29 19:33:00,
2013-01-29 11:38:00,43.0,42.4,30.13,ENE,68,0.0,0.0,98,0.00,,,0.16,meteohub,2013-01-29 19:38:00,
2013-01-29 11:44:00,43.0,42.4,30.13,East,90,0.0,0.0,98,0.00,,,0.16,meteohub,2013-01-29 19:44:00,
2013-01-29 11:49:00,43.3,42.8,30.10,East,90,0.0,0.0,98,0.00,,,0.16,meteohub,2013-01-29 19:49:00,
2013-01-29 11:54:00,43.5,43.0,30.10,East,90,0.0,0.0,98,0.00,,,0.16,meteohub,2013-01-29 19:54:00,
2013-01-29 11:58:00,43.5,43.0,30.10,East,90,0.0,0.0,98,0.00,,,0.16,meteohub,2013-01-29 19:58:00,
2013-01-29 12:03:00,43.5,43.0,30.10,East,90,0.0,0.0,98,0.00,,,0.16,meteohub,2013-01-29 20:03:00,
2013-01-29 12:08:00,43.5,43.0,30.10,North,0,0.0,0.0,98,0.00,,,0.16,meteohub,2013-01-29 20:08:00,
2013-01-29 12:13:00,43.3,42.8,30.10,North,0,0.0,0.0,98,0.00,,,0.16,meteohub,2013-01-29 20:13:00,
2013-01-29 12:18:00,43.3,42.8,30.10,North,0,0.0,0.0,98,0.00,,,0.16,meteohub,2013-01-29 20:18:00,
2013-01-29 12:23:00,43.5,43.0,30.10,North,0,0.0,0.0,98,0.00,,,0.16,meteohub,2013-01-29 20:23:00,
2013-01-29 12:28:00,43.5,43.0,30.10,NNW,338,0.0,0.0,98,0.00,,,0.21,meteohub,2013-01-29 20:28:00,
2013-01-29 12:33:00,43.5,43.0,30.13,NNW,338,0.0,0.0,98,0.00,,,0.21,meteohub,2013-01-29 20:33:00,
2013-01-29 12:38:00,43.5,43.0,30.13,NNW,338,0.0,1.0,98,0.05,,,0.21,meteohub,2013-01-29 20:38:00,
2013-01-29 12:43:00,43.7,43.2,30.13,NNW,338,0.0,1.0,98,0.05,,,0.21,meteohub,2013-01-29 20:43:00,
2013-01-29 12:48:00,43.9,43.3,30.13,NNW,338,0.0,1.0,98,0.05,,,0.21,meteohub,2013-01-29 20:48:00,
2013-01-29 12:53:00,44.1,43.5,30.13,NNW,338,0.0,1.0,98,0.05,,,0.21,meteohub,2013-01-29 20:53:00,
2013-01-29 12:58:00,44.1,43.5,30.13,NNW,338,0.0,1.0,98,0.05,,,0.21,meteohub,2013-01-29 20:58:00,
2013-01-29 13:03:00,44.2,43.7,30.13,NNW,338,0.0,1.0,98,0.09,,,0.21,meteohub,2013-01-29 21:03:00,
2013-01-29 13:08:00,44.4,43.9,30.13,NNW,338,0.0,0.0,98,0.09,,,0.21,meteohub,2013-01-29 21:08:00,
2013-01-29 13:13:00,44.6,44.1,30.13,NNW,338,0.0,0.0,98,0.09,,,0.21,meteohub,2013-01-29 21:13:00,
2013-01-29 13:18:00,44.6,44.1,30.13,NNW,338,0.0,0.0,98,0.09,,,0.21,meteohub,2013-01-29 21:18:00,
2013-01-29 13:23:00,44.6,44.1,30.13,NW,315,0.0,0.0,98,0.09,,,0.25,meteohub,2013-01-29 21:23:00,
2013-01-29 13:28:00,44.6,44.1,30.13,NW,315,0.0,0.0,98,0.09,,,0.25,meteohub,2013-01-29 21:28:00,
2013-01-29 13:33:00,44.6,44.1,30.13,NW,315,0.0,1.0,98,0.04,,,0.25,meteohub,2013-01-29 21:33:00,
2013-01-29 13:38:00,45.0,44.4,30.13,NW,315,0.0,1.0,98,0.04,,,0.25,meteohub,2013-01-29 21:38:00,
2013-01-29 13:43:00,45.0,44.4,30.13,NW,315,0.0,1.0,98,0.04,,,0.25,meteohub,2013-01-29 21:43:00,
2013-01-29 13:48:00,45.1,44.6,30.13,NW,315,0.0,1.0,98,0.04,,,0.25,meteohub,2013-01-29 21:48:00,
2013-01-29 13:53:00,45.1,44.6,30.13,NW,315,0.0,1.0,98,0.04,,,0.25,meteohub,2013-01-29 21:53:00,
2013-01-29 13:58:00,45.1,44.6,30.13,NW,315,0.0,0.0,98,0.00,,,0.25,meteohub,2013-01-29 21:58:00,
2013-01-29 14:03:00,45.0,44.4,30.13,NW,315,1.0,0.0,98,0.00,,,0.25,meteohub,2013-01-29 22:03:00,
2013-01-29 14:08:00,44.8,44.2,30.13,NW,315,0.0,0.0,98,0.00,,,0.25,meteohub,2013-01-29 22:08:00,
2013-01-29 14:13:00,44.8,44.2,30.13,NW,315,0.0,0.0,98,0.00,,,0.29,meteohub,2013-01-29 22:13:00,
2013-01-29 14:18:00,44.8,44.2,30.16,NW,315,0.0,0.0,98,0.04,,,0.29,meteohub,2013-01-29 22:18:00,
2013-01-29 14:23:00,45.0,44.4,30.16,NW,315,0.0,1.0,98,0.04,,,0.29,meteohub,2013-01-29 22:23:00,
2013-01-29 14:29:00,45.0,44.4,30.16,NW,315,0.0,1.0,98,0.04,,,0.29,meteohub,2013-01-29 22:29:00,
2013-01-29 14:34:00,45.1,44.6,30.13,NW,315,0.0,1.0,98,0.04,,,0.29,meteohub,2013-01-29 22:34:00,
2013-01-29 14:39:00,45.1,44.6,30.13,NNW,338,0.0,1.0,98,0.04,,,0.29,meteohub,2013-01-29 22:39:00,
2013-01-29 14:44:00,45.1,44.6,30.13,NNW,338,0.0,1.0,98,0.04,,,0.29,meteohub,2013-01-29 22:44:00,
2013-01-29 14:49:00,45.1,44.6,30.13,NNW,338,0.0,0.0,98,0.04,,,0.29,meteohub,2013-01-29 22:49:00,
2013-01-29 14:54:00,45.1,44.6,30.13,NNW,338,0.0,0.0,98,0.04,,,0.29,meteohub,2013-01-29 22:54:00,
2013-01-29 14:59:00,45.1,44.6,30.13,NNW,338,0.0,0.0,98,0.04,,,0.33,meteohub,2013-01-29 22:59:00,
2013-01-29 15:04:00,45.3,44.8,30.16,NNW,338,0.0,0.0,98,0.04,,,0.33,meteohub,2013-01-29 23:04:00,
2013-01-29 15:09:00,45.1,44.6,30.16,NNW,338,0.0,0.0,98,0.08,,,0.33,meteohub,2013-01-29 23:09:00,
2013-01-29 15:14:00,45.1,44.6,30.16,NNW,338,0.0,0.0,98,0.08,,,0.33,meteohub,2013-01-29 23:14:00,
2013-01-29 15:19:00,45.1,44.6,30.16,NNW,338,0.0,0.0,98,0.08,,,0.33,meteohub,2013-01-29 23:19:00,
2013-01-29 15:24:00,45.1,44.6,30.16,NNW,338,0.0,0.0,98,0.08,,,0.33,meteohub,2013-01-29 23:24:00,
2013-01-29 15:29:00,45.1,44.6,30.16,NNW,338,0.0,0.0,98,0.08,,,0.33,meteohub,2013-01-29 23:29:00,
2013-01-29 15:34:00,45.1,44.6,30.16,NNW,338,0.0,0.0,98,0.08,,,0.33,meteohub,2013-01-29 23:34:00,
2013-01-29 15:39:00,45.1,44.6,30.16,NNW,338,0.0,0.0,98,0.08,,,0.33,meteohub,2013-01-29 23:39:00,
2013-01-29 15:44:00,45.0,44.4,30.16,South,180,0.0,0.0,98,0.08,,,0.33,meteohub,2013-01-29 23:44:00,
2013-01-29 15:49:00,45.0,44.4,30.16,South,180,0.0,0.0,98,0.08,,,0.37,meteohub,2013-01-29 23:49:00,
2013-01-29 15:54:00,45.0,44.4,30.16,South,180,0.0,0.0,98,0.08,,,0.37,meteohub,2013-01-29 23:54:00,
2013-01-29 15:59:00,45.0,44.4,30.16,SSE,158,0.0,1.0,98,0.04,,,0.37,meteohub,2013-01-29 23:59:00,
2013-01-29 16:04:00,44.8,44.2,30.16,SSE,158,0.0,1.0,98,0.04,,,0.37,meteohub,2013-01-30 00:04:00,
2013-01-29 16:09:00,44.8,44.2,30.16,SE,135,0.0,1.0,98,0.04,,,0.37,meteohub,2013-01-30 00:09:00,
2013-01-29 16:14:00,44.6,44.1,30.16,ESE,112,0.0,1.0,98,0.04,,,0.37,meteohub,2013-01-30 00:14:00,
2013-01-29 16:19:00,44.6,44.1,30.19,ESE,112,0.0,0.0,98,0.04,,,0.37,meteohub,2013-01-30 00:19:00,
2013-01-29 16:24:00,44.6,44.1,30.19,ESE,112,0.0,0.0,98,0.04,,,0.37,meteohub,2013-01-30 00:24:00,
2013-01-29 16:29:00,44.6,44.1,30.19,ESE,112,0.0,0.0,98,0.04,,,0.37,meteohub,2013-01-30 00:29:00,
2013-01-29 16:34:00,44.4,43.9,30.16,ESE,112,0.0,0.0,98,0.00,,,0.37,meteohub,2013-01-30 00:34:00,
2013-01-29 16:39:00,44.4,43.9,30.16,ESE,112,0.0,0.0,98,0.00,,,0.37,meteohub,2013-01-30 00:39:00,
2013-01-29 16:44:00,44.4,43.9,30.16,ESE,112,0.0,0.0,98,0.00,,,0.37,meteohub,2013-01-30 00:44:00,
2013-01-29 16:49:00,44.2,43.7,30.16,ESE,112,0.0,0.0,98,0.00,,,0.37,meteohub,2013-01-30 00:49:00,
2013-01-29 16:54:00,44.4,43.9,30.16,East,90,0.0,0.0,98,0.00,,,0.37,meteohub,2013-01-30 00:54:00,
2013-01-29 16:59:00,44.6,44.1,30.16,ESE,112,1.0,0.0,98,0.00,,,0.37,meteohub,2013-01-30 00:59:00,
2013-01-29 17:04:00,44.6,44.1,30.16,ESE,112,0.0,1.0,98,0.00,,,0.37,meteohub,2013-01-30 01:04:00,
2013-01-29 17:09:00,44.6,44.1,30.16,ESE,112,0.0,1.0,98,0.00,,,0.37,meteohub,2013-01-30 01:09:00,
2013-01-29 17:14:00,44.6,44.1,30.16,East,90,0.0,1.0,98,0.00,,,0.37,meteohub,2013-01-30 01:14:00,
2013-01-29 17:19:00,44.6,44.1,30.19,East,90,0.0,1.0,98,0.00,,,0.37,meteohub,2013-01-30 01:19:00,
2013-01-29 17:24:00,44.6,44.1,30.19,SE,135,0.0,1.0,98,0.00,,,0.37,meteohub,2013-01-30 01:24:00,
2013-01-29 17:29:00,44.6,44.1,30.19,ESE,112,0.0,2.0,98,0.00,,,0.37,meteohub,2013-01-30 01:29:00,
2013-01-29 17:34:00,44.8,44.2,30.16,ESE,112,2.0,2.0,98,0.00,,,0.37,meteohub,2013-01-30 01:34:00,
2013-01-29 17:40:00,44.8,44.2,30.16,East,90,2.0,2.0,98,0.00,,,0.37,meteohub,2013-01-30 01:40:00,
2013-01-29 17:45:00,44.8,44.2,30.16,ESE,112,0.0,2.0,98,0.00,,,0.37,meteohub,2013-01-30 01:45:00,
2013-01-29 17:50:00,44.8,44.2,30.16,East,90,0.0,2.0,98,0.00,,,0.37,meteohub,2013-01-30 01:50:00,
2013-01-29 17:55:00,44.8,44.2,30.16,East,90,1.0,2.0,98,0.00,,,0.41,meteohub,2013-01-30 01:55:00,
2013-01-29 18:00:00,44.8,44.2,30.16,ESE,112,1.0,2.0,98,0.04,,,0.41,meteohub,2013-01-30 02:00:00,
2013-01-29 18:05:00,44.8,44.2,30.16,SE,135,0.0,2.0,98,0.04,,,0.41,meteohub,2013-01-30 02:05:00,
2013-01-29 18:10:00,44.8,44.2,30.16,ESE,112,2.0,2.0,98,0.04,,,0.41,meteohub,2013-01-30 02:10:00,
2013-01-29 18:15:00,44.8,44.2,30.16,SE,135,2.0,2.0,98,0.04,,,0.41,meteohub,2013-01-30 02:15:00,
2013-01-29 18:20:00,45.0,44.4,30.16,ESE,112,1.0,2.0,98,0.04,,,0.41,meteohub,2013-01-30 02:20:00,
2013-01-29 18:25:00,44.8,44.2,30.16,East,90,0.0,2.0,98,0.04,,,0.41,meteohub,2013-01-30 02:25:00,
2013-01-29 18:30:00,44.8,44.2,30.16,SE,135,0.0,2.0,98,0.04,,,0.41,meteohub,2013-01-30 02:30:00,
2013-01-29 18:35:00,45.0,44.4,30.16,South,180,1.0,2.0,98,0.04,,,0.41,meteohub,2013-01-30 02:35:00,
2013-01-29 18:40:00,45.0,44.4,30.16,ESE,112,2.0,2.0,98,0.04,,,0.41,meteohub,2013-01-30 02:40:00,
2013-01-29 18:45:00,45.0,44.4,30.16,ESE,112,0.0,4.0,98,0.04,,,0.41,meteohub,2013-01-30 02:45:00,
2013-01-29 18:50:00,45.0,44.4,30.16,ESE,112,0.0,4.0,98,0.04,,,0.41,meteohub,2013-01-30 02:50:00,
2013-01-29 18:55:00,44.8,44.2,30.16,East,90,2.0,4.0,98,0.04,,,0.41,meteohub,2013-01-30 02:55:00,
2013-01-29 19:00:00,45.0,44.4,30.16,SE,135,0.0,4.0,98,0.00,,,0.41,meteohub,2013-01-30 03:00:00,
2013-01-29 19:05:00,45.0,44.4,30.16,East,90,4.0,4.0,98,0.00,,,0.41,meteohub,2013-01-30 03:05:00,
2013-01-29 19:10:00,45.0,44.4,30.16,SSW,202,2.0,3.0,98,0.00,,,0.41,meteohub,2013-01-30 03:10:00,
2013-01-29 19:15:00,45.0,44.4,30.16,SSE,158,2.0,3.0,98,0.00,,,0.41,meteohub,2013-01-30 03:15:00,
2013-01-29 19:20:00,45.0,44.4,30.16,SSE,158,1.0,4.0,98,0.00,,,0.41,meteohub,2013-01-30 03:20:00,
2013-01-29 19:25:00,45.0,44.4,30.16,South,180,3.0,4.0,98,0.00,,,0.41,meteohub,2013-01-30 03:25:00,
2013-01-29 19:30:00,45.0,44.4,30.16,East,90,2.0,3.0,98,0.04,,,0.41,meteohub,2013-01-30 03:30:00,
2013-01-29 19:35:00,45.0,44.4,30.13,SE,135,1.0,3.0,98,0.04,,,0.41,meteohub,2013-01-30 03:35:00,
2013-01-29 19:40:00,45.0,44.4,30.13,ESE,112,0.0,3.0,98,0.04,,,0.45,meteohub,2013-01-30 03:40:00,
2013-01-29 19:45:00,44.8,44.2,30.13,SE,135,1.0,4.0,98,0.04,,,0.45,meteohub,2013-01-30 03:45:00,
2013-01-29 19:50:00,44.8,44.2,30.16,ESE,112,1.0,4.0,98,0.04,,,0.45,meteohub,2013-01-30 03:50:00,
2013-01-29 19:55:00,44.8,44.2,30.16,SSW,202,1.0,4.0,98,0.04,,,0.45,meteohub,2013-01-30 03:55:00,
2013-01-29 20:00:00,44.8,44.2,30.16,East,90,1.0,3.0,98,0.04,,,0.45,meteohub,2013-01-30 04:00:00,
2013-01-29 20:05:00,44.8,44.2,30.16,South,180,1.0,3.0,98,0.04,,,0.45,meteohub,2013-01-30 04:05:00,
2013-01-29 20:10:00,44.8,44.2,30.16,East,90,0.0,3.0,98,0.04,,,0.49,meteohub,2013-01-30 04:10:00,
2013-01-29 20:15:00,44.8,44.2,30.16,SSW,202,1.0,3.0,98,0.08,,,0.49,meteohub,2013-01-30 04:15:00,
2013-01-29 20:20:00,44.8,44.2,30.16,ESE,112,1.0,3.0,98,0.08,,,0.49,meteohub,2013-01-30 04:20:00,
2013-01-29 20:25:00,44.8,44.2,30.16,SW,225,2.0,3.0,98,0.08,,,0.49,meteohub,2013-01-30 04:25:00,
2013-01-29 20:30:00,44.8,44.2,30.16,ESE,112,2.0,4.0,98,0.04,,,0.49,meteohub,2013-01-30 04:30:00,
2013-01-29 20:35:00,44.8,44.2,30.16,SSE,158,0.0,4.0,98,0.04,,,0.49,meteohub,2013-01-30 04:35:00,
2013-01-29 20:40:00,44.8,44.2,30.16,East,90,0.0,4.0,98,0.09,,,0.54,meteohub,2013-01-30 04:40:00,
2013-01-29 20:45:00,44.6,44.1,30.16,East,90,2.0,3.0,98,0.09,,,0.54,meteohub,2013-01-30 04:45:00,
2013-01-29 20:50:00,44.6,44.1,30.16,East,90,0.0,3.0,98,0.09,,,0.54,meteohub,2013-01-30 04:50:00,
2013-01-29 20:55:00,44.6,44.1,30.16,ESE,112,1.0,3.0,98,0.09,,,0.54,meteohub,2013-01-30 04:55:00,
2013-01-29 21:01:00,44.6,44.1,30.16,East,90,2.0,2.0,98,0.13,,,0.54,meteohub,2013-01-30 05:01:00,
2013-01-29 21:02:00,44.6,44.1,30.16,East,90,1.0,2.0,98,0.13,,,0.54,meteohub,2013-01-30 05:02:00,
2013-01-29 21:04:00,44.6,44.1,30.16,ESE,112,2.0,2.0,98,0.13,,,0.54,meteohub,2013-01-30 05:04:00,
2013-01-29 21:09:00,44.6,44.1,30.16,ENE,68,0.0,2.0,98,0.13,,,0.58,meteohub,2013-01-30 05:09:00,
2013-01-29 21:14:00,44.6,44.1,30.16,East,90,0.0,2.0,98,0.09,,,0.58,meteohub,2013-01-30 05:14:00,
2013-01-29 21:19:00,44.4,43.9,30.13,ENE,68,4.0,4.0,98,0.09,,,0.58,meteohub,2013-01-30 05:19:00,
2013-01-29 21:24:00,44.4,43.9,30.13,SSE,158,0.0,4.0,98,0.09,,,0.62,meteohub,2013-01-30 05:24:00,
2013-01-29 21:29:00,44.4,43.9,30.13,SE,135,1.0,4.0,98,0.08,,,0.62,meteohub,2013-01-30 05:29:00,
2013-01-29 21:34:00,44.4,43.9,30.16,East,90,0.0,4.0,98,0.08,,,0.62,meteohub,2013-01-30 05:34:00,
2013-01-29 21:39:00,44.2,43.7,30.16,SE,135,2.0,4.0,98,0.08,,,0.62,meteohub,2013-01-30 05:39:00,
2013-01-29 21:44:00,44.2,43.7,30.16,East,90,0.0,4.0,98,0.08,,,0.66,meteohub,2013-01-30 05:44:00,
2013-01-29 21:49:00,44.2,43.7,30.16,SSE,158,1.0,4.0,98,0.12,,,0.66,meteohub,2013-01-30 05:49:00,
2013-01-29 21:54:00,44.2,43.7,30.16,SSE,158,1.0,3.0,98,0.12,,,0.66,meteohub,2013-01-30 05:54:00,
2013-01-29 21:59:00,44.1,43.5,30.16,South,180,3.0,3.0,98,0.12,,,0.66,meteohub,2013-01-30 05:59:00,
2013-01-29 22:04:00,44.1,43.5,30.16,SE,135,2.0,4.0,98,0.08,,,0.66,meteohub,2013-01-30 06:04:00,
2013-01-29 22:09:00,44.1,43.5,30.16,SSE,158,0.0,4.0,98,0.08,,,0.66,meteohub,2013-01-30 06:09:00,
2013-01-29 22:14:00,43.9,43.3,30.16,SE,135,0.0,4.0,98,0.08,,,0.70,meteohub,2013-01-30 06:14:00,
2013-01-29 22:19:00,43.9,43.3,30.13,East,90,0.0,6.0,98,0.08,,,0.70,meteohub,2013-01-30 06:19:00,
2013-01-29 22:24:00,43.7,43.2,30.13,ESE,112,0.0,6.0,98,0.08,,,0.70,meteohub,2013-01-30 06:24:00,
2013-01-29 22:29:00,43.7,43.2,30.13,East,90,1.0,6.0,98,0.08,,,0.70,meteohub,2013-01-30 06:29:00,
2013-01-29 22:34:00,43.7,43.2,30.16,SSE,158,0.0,1.0,98,0.12,,,0.70,meteohub,2013-01-30 06:34:00,
2013-01-29 22:39:00,43.5,43.0,30.16,East,90,0.0,1.0,98,0.12,,,0.70,meteohub,2013-01-30 06:39:00,
2013-01-29 22:44:00,43.5,43.0,30.16,ESE,112,1.0,1.0,98,0.12,,,0.74,meteohub,2013-01-30 06:44:00,
2013-01-29 22:49:00,43.5,43.0,30.16,SE,135,1.0,3.0,98,0.13,,,0.74,meteohub,2013-01-30 06:49:00,
2013-01-29 22:54:00,43.3,42.8,30.16,ESE,112,2.0,3.0,98,0.13,,,0.74,meteohub,2013-01-30 06:54:00,
2013-01-29 22:59:00,43.3,42.8,30.16,ESE,112,0.0,3.0,98,0.13,,,0.79,meteohub,2013-01-30 06:59:00,
2013-01-29 23:04:00,43.3,42.8,30.16,SSE,158,0.0,3.0,98,0.13,,,0.79,meteohub,2013-01-30 07:04:00,
2013-01-29 23:09:00,43.3,42.8,30.16,SSE,158,0.0,3.0,98,0.13,,,0.79,meteohub,2013-01-30 07:09:00,
2013-01-29 23:14:00,43.3,42.8,30.16,ESE,112,0.0,3.0,98,0.13,,,0.83,meteohub,2013-01-30 07:14:00,
2013-01-29 23:19:00,43.2,42.6,30.16,ESE,112,0.0,2.0,98,0.13,,,0.83,meteohub,2013-01-30 07:19:00,
2013-01-29 23:25:00,43.2,42.6,30.16,South,180,0.0,2.0,98,0.13,,,0.83,meteohub,2013-01-30 07:25:00,
2013-01-29 23:30:00,43.2,42.6,30.16,East,90,0.0,2.0,98,0.13,,,0.83,meteohub,2013-01-30 07:30:00,
2013-01-29 23:35:00,43.2,42.6,30.16,ESE,112,0.0,2.0,98,0.09,,,0.83,meteohub,2013-01-30 07:35:00,
2013-01-29 23:40:00,43.0,42.4,30.16,SE,135,0.0,2.0,98,0.09,,,0.83,meteohub,2013-01-30 07:40:00,
2013-01-29 23:45:00,43.0,42.4,30.16,SSE,158,1.0,2.0,98,0.09,,,0.87,meteohub,2013-01-30 07:45:00,
2013-01-29 23:50:00,43.0,42.4,30.16,SE,135,0.0,3.0,98,0.08,,,0.87,meteohub,2013-01-30 07:50:00,
2013-01-29 23:55:00,43.0,42.4,30.16,SSE,158,0.0,3.0,98,0.08,,,0.87,meteohub,2013-01-30 07:55:00,